Content
SEND FEEDBACK

Daily
Averages
Monthly
Summary
United States of America

KOKOMO, INDIANA


Home > North America > United States > Indiana
Elevation: 827 feet     Latitude: 40 31N     Longitude: 086 03W

WEATHER
 
SELECT A DAY
Number of Records: 263,490;   Date Range: 9/23/02 - 8/28/14
 
SHARE

PRINT THIS DATA

[ ← Previous Day ]
WEATHER ALMANAC - FEBRUARY 13, 2013
[ Next Day → ]
[ °C ]   °F
Weather ElementAverageHighLow
Temperature34.1 °F44.6 °F (1:55 pm)26.6 °F (12:35 am)
Dewpoint26.3 °F30.2 °F (2:55 pm)21.2 °F (12:55 am)
Humidity74.2 %93 % (12:35 am)53 % (12:55 pm)
Barometer29.82 in29.92 in (12:35 am)29.75 in (1:55 pm)
Wind Speed6.8 mph13.8 mph (11:15 pm)
Wind Gust17.3 mph (11:55 pm)
Weather ElementAverage
Visibility9.1 mi
Wind DirectionS (183.8 °)

Weather ElementTotal
Precipitation---
Heating Degree Days29.4 (Base 65)
Averaged from 71 records on February 13, 2013
WEATHER CONDITIONS BREAKOUT
WIND DIRECTION BREAKOUT
WEATHER BY HOUR - FEBRUARY 13, 2013
[ °C ]   °F
Local TimeTemperatureDewpointHumidityBarometerVisibilityWind DirectionWind SpeedGust SpeedPrecipitationEventsConditions
12:35 AM26.6 °F24.8 °F93 %29.92 in10.0 miNNW (340°)3.5 mphOvercast
12:55 AM26.6 °F21.2 °F80 %29.92 in10.0 miNorth (360°)4.6 mphMostly Cloudy
1:15 AM28.4 °F24.8 °F86 %29.92 in10.0 miNorth (350°)5.8 mphClear
1:35 AM28.4 °F23.0 °F80 %29.91 in10.0 miNorth (350°)6.9 mphClear
1:55 AM28.4 °F24.8 °F86 %29.90 in10.0 miNorth (360°)8.1 mphClear
2:15 AM28.4 °F21.2 °F74 %29.89 in10.0 miNorth (10°)6.9 mphClear
2:35 AM28.4 °F24.8 °F86 %29.89 in10.0 miNorth (10°)5.8 mphClear
2:55 AM28.4 °F21.2 °F74 %29.88 in10.0 miNNE (20°)3.5 mphClear
3:15 AM26.6 °F24.8 °F93 %29.88 in10.0 miNNE (30°)3.5 mphClear
3:35 AM28.4 °F23.0 °F80 %29.87 in9.0 miNorth (10°)3.5 mphClear
3:55 AM28.4 °F24.8 °F86 %29.87 in8.0 miNNE (20°)3.5 mphClear
4:15 AM26.6 °F21.2 °F80 %29.86 in8.0 miCalmClear
4:35 AM26.6 °F24.8 °F93 %29.85 in9.0 miENE (60°)3.5 mphClear
4:55 AM26.6 °F21.2 °F80 %29.85 in8.0 miCalmClear
5:15 AM26.6 °F24.8 °F93 %29.84 in8.0 miENE (60°)3.5 mphClear
5:35 AM26.6 °F21.2 °F80 %29.84 in8.0 miENE (70°)3.5 mphClear
5:55 AM26.6 °F24.8 °F93 %29.84 in7.0 miNE (50°)3.5 mphClear
6:15 AM26.6 °F21.2 °F80 %29.82 in8.0 miNE (50°)3.5 mphClear
6:35 AM26.6 °F23.0 °F86 %29.82 in7.0 miENE (60°)3.5 mphClear
6:55 AM26.6 °F24.8 °F93 %29.82 in5.0 miENE (70°)4.6 mphClear
7:15 AM26.6 °F21.2 °F80 %29.82 in6.0 miCalmClear
7:35 AM26.6 °F24.8 °F93 %29.84 in7.0 miCalmClear
7:55 AM26.6 °F23.0 °F86 %29.84 in7.0 miCalmClear
8:15 AM28.4 °F23.0 °F80 %29.84 in6.0 miCalmClear
8:35 AM28.4 °F23.0 °F80 %29.84 in7.0 miCalmClear
8:55 AM28.4 °F24.8 °F86 %29.85 in7.0 miCalmClear
9:15 AM28.4 °F24.8 °F86 %29.84 in6.0 miSSW (200°)5.8 mphClear
9:35 AM28.4 °F24.8 °F86 %29.84 in6.0 miSSW (210°)3.5 mphClear
9:55 AM30.2 °F24.8 °F80 %29.84 in7.0 miSSW (210°)4.6 mphClear
10:15 AM30.2 °F26.6 °F86 %29.84 in7.0 miSSW (200°)4.6 mphClear
10:35 AM33.8 °F26.6 °F75 %29.83 in8.0 miSW (220°)3.5 mphClear
10:55 AM33.8 °F26.6 °F75 %29.83 in7.0 miSW (230°)5.8 mphClear
11:15 AM35.6 °F26.6 °F70 %29.82 in9.0 miWest (260°)5.8 mphClear
11:35 AM37.4 °F26.6 °F65 %29.82 in10.0 miWSW (240°)5.8 mphClear
11:55 AM39.2 °F26.6 °F61 %29.80 in10.0 miWest (280°)5.8 mphClear
12:15 PM39.2 °F24.8 °F56 %29.79 in10.0 miWNW (290°)3.5 mphClear
12:35 PM41.0 °F26.6 °F57 %29.78 in10.0 miWSW (250°)5.8 mphClear
12:55 PM42.8 °F26.6 °F53 %29.77 in10.0 miWNW (290°)8.1 mphClear
1:15 PM42.8 °F26.6 °F53 %29.76 in10.0 miWest (280°)9.2 mphClear
1:35 PM42.8 °F28.4 °F57 %29.76 in10.0 miWest (260°)6.9 mphClear
1:55 PM44.6 °F28.4 °F53 %29.75 in10.0 miWest (260°)9.2 mphClear
2:15 PM44.6 °F28.4 °F53 %29.75 in10.0 miWest (270°)9.2 mphClear
2:35 PM44.6 °F28.4 °F53 %29.75 in10.0 miWNW (290°)11.5 mphClear
2:55 PM44.6 °F30.2 °F57 %29.75 in10.0 miWest (270°)10.4 mphClear
3:15 PM44.6 °F30.2 °F57 %29.75 in10.0 miWest (280°)11.5 mphClear
3:35 PM44.6 °F30.2 °F57 %29.75 in10.0 miWest (270°)10.4 mphClear
3:55 PM44.6 °F28.4 °F53 %29.75 in10.0 miWest (260°)11.5 mphClear
4:15 PM44.6 °F30.2 °F57 %29.75 in10.0 miWest (260°)12.7 mphClear
4:35 PM42.8 °F30.2 °F61 %29.76 in10.0 miWSW (250°)9.2 mphClear
4:55 PM42.8 °F30.2 °F61 %29.76 in10.0 miWSW (250°)9.2 mphClear
5:15 PM39.2 °F28.4 °F65 %29.77 in10.0 miWSW (240°)9.2 mphClear
5:35 PM37.4 °F28.4 °F70 %29.77 in10.0 miWSW (240°)9.2 mphClear
5:55 PM37.4 °F28.4 °F70 %29.78 in10.0 miWSW (250°)8.1 mphClear
6:15 PM37.4 °F28.4 °F70 %29.78 in10.0 miSW (220°)6.9 mphClear
6:35 PM35.6 °F28.4 °F75 %29.78 in10.0 miSSW (210°)6.9 mphClear
6:55 PM35.6 °F26.6 °F70 %29.79 in10.0 miSSW (210°)6.9 mphPartly Cloudy
7:15 PM35.6 °F30.2 °F81 %29.79 in10.0 miSSW (210°)8.1 mphScattered Clouds
7:35 PM35.6 °F30.2 °F81 %29.79 in10.0 miSSW (200°)8.1 mphPartly Cloudy
7:55 PM35.6 °F30.2 °F81 %29.79 in10.0 miSW (220°)9.2 mphPartly Cloudy
8:15 PM37.4 °F28.4 °F70 %29.79 in10.0 miSW (230°)12.7 mphPartly Cloudy
8:35 PM37.4 °F28.4 °F70 %29.80 in10.0 miSW (230°)12.7 mphClear
8:55 PM35.6 °F28.4 °F75 %29.80 in10.0 miSW (230°)11.5 mphClear
9:15 PM35.6 °F28.4 °F75 %29.80 in10.0 miSW (220°)11.5 mphClear
9:35 PM35.6 °F28.4 °F75 %29.80 in10.0 miSW (220°)10.4 mphClear
9:55 PM35.6 °F28.4 °F75 %29.80 in10.0 miSW (230°)11.5 mphClear
10:15 PM35.6 °F26.6 °F70 %29.80 in10.0 miSW (220°)10.4 mphClear
10:35 PM35.6 °F28.4 °F75 %29.80 in10.0 miSW (220°)11.5 mphClear
10:55 PM35.6 °F28.4 °F75 %29.80 in10.0 miSW (220°)12.7 mphClear
11:15 PM35.6 °F28.4 °F75 %29.81 in10.0 miSW (230°)13.8 mphClear
11:35 PM35.6 °F28.4 °F75 %29.81 in10.0 miSW (220°)13.8 mphClear
11:55 PM35.6 °F28.4 °F75 %29.81 in10.0 miSW (220°)12.7 mph17.3 mphClear
Hourly data recorded from KOKK, located miles away from Kokomo, Indiana







STORIES FROM OUR PARTNERS